This is the latest recevied weather packets stored in our database for station/object F4FEB-13. If no packets are shown the sender has not sent any weather packets the latest 10 day(s).
| Time | Temp. | Humidity | Pressure | Rain* | Wind** | Luminosity | Snow |
|---|---|---|---|---|---|---|---|
| 1777731567 | 23.33° C | 40% | 1018.5 hPa | 0 mm | - | - | - |
| 1777731267 | 23.33° C | 42% | 1018.5 hPa | 0 mm | - | - | - |
| 1777730967 | 23.33° C | 41% | 1018.5 hPa | 0 mm | - | - | - |
| 1777730667 | 23.33° C | 41% | 1018.6 hPa | 0 mm | - | - | - |
| 1777730367 | 23.33° C | 40% | 1018.7 hPa | 0 mm | - | - | - |
| 1777730067 | 23.33° C | 41% | 1018.7 hPa | 0 mm | - | - | - |
| 1777729767 | 23.33° C | 42% | 1018.9 hPa | 0 mm | - | - | - |
| 1777729167 | 23.33° C | 40% | 1019 hPa | 0 mm | - | - | - |
| 1777728867 | 22.78° C | 41% | 1019 hPa | 0 mm | - | - | - |
| 1777728567 | 22.78° C | 41% | 1019.1 hPa | 0 mm | - | - | - |
| 1777728267 | 22.78° C | 43% | 1019.1 hPa | 0 mm | - | - | - |
| 1777727967 | 22.78° C | 42% | 1019.1 hPa | 0 mm | - | - | - |
| 1777727667 | 22.78° C | 42% | 1019.1 hPa | 0 mm | - | - | - |
| 1777727367 | 22.78° C | 41% | 1019.2 hPa | 0 mm | - | - | - |
| 1777726772 | 23.33° C | 39% | 1019.2 hPa | 0 mm | - | - | - |
| 1777726768 | 23.33° C | 39% | 1019.2 hPa | 0 mm | - | - | - |
| 1777726168 | 23.33° C | 41% | 1019.3 hPa | 0 mm | - | - | - |
| 1777725868 | 23.33° C | 43% | 1019.4 hPa | 0 mm | - | - | - |
| 1777725568 | 22.78° C | 42% | 1019.5 hPa | 0 mm | - | - | - |
| 1777725268 | 22.78° C | 39% | 1019.5 hPa | 0 mm | - | - | - |
| 1777724968 | 23.33° C | 40% | 1019.5 hPa | 0 mm | - | - | - |
| 1777724668 | 23.33° C | 40% | 1019.4 hPa | 0 mm | - | - | - |
| 1777724368 | 23.33° C | 39% | 1019.4 hPa | 0 mm | - | - | - |
| 1777724068 | 22.78° C | 40% | 1019.6 hPa | 0 mm | - | - | - |
| 1777723768 | 23.33° C | 38% | 1019.6 hPa | 0 mm | - | - | - |
* Rain latest hour (hover to see other rain measurements)
** Current wind speed in m/s (hover to see current wind gust speed)